Showing default

ORBCOMM FM 113, 41185

Orbit data source: Space-Track

ORBCOMM FM 113, 41185 is a payload satellite owned by Orbcomm (US) in LEO that was launched on Tue, 22 Dec 2015 UTC via an FALCON 9 launch vehicle from the Air Force Eastern Test Range (AFETR). Payload-class satellites include a variety of spacecraft equipped with specific instruments for various scientific and technological missions. These include communications satellites like Starlink; space stations such as the ISS; scientific satellites like the Hubble; Earth observation satellites from companies like Planet Labs, Umbra, and HawkEye 360; GPS; miniature CubeSats for education and research; and military/defense satellites.

Loading next visibility...
Identifier
41185, 2015-081G
Orbit
LEO
Country
Flag of USUS / ORB
Related business
Manufacturer
SNC Louisville
Mission
Partially operational Commercial Communications
Bus & Motor
SN-100A, Unknown motor
Mass
172 kg wet, 158 kg dry
Launch date (UTC)
2015-12-22 (10 years ago)
Launch vehicle
FALCON 9
Launch site
Air Force Eastern Test Range (AFETR)
Object type
Payload
Rocket body
Debris
Shape & HBR
Box + 1 Pan + 1 Ant, 5.3 m
Radar Cross Section
2.222 m², Large (>1 m²)

Expand to show TLE details & history
Last TLE update: 1 day ago

TLE from 1 day ago
0 ORBCOMM FM 113
1 41185U 15081G   26163.05131900  .00000335  00000-0  10705-3 0  9998
2 41185  47.0017 294.9070 0001998 204.7602 155.3188 14.58853293558185
Epoch: 2026-06-12T01:13Z
TLE epoch observation values (Epoch: 2026-06-12T01:13:53.961Z)
Latitude
-0.00004°
Longitude
16.04581°
Altitude
698.379 km
Speed
7.508 km/s
True Right ascension
19h 39m 37s
True Declination
0° 00' 00"
Sunlit
Object was in full shadow at epoch
Visualization orbit readout
Latitude
Unknown
Longitude
Unknown
Altitude
Unknown
Speed
Unknown
Apparent Right ascension
Unknown
Apparent Declination
Unknown
Sunlit
N/A
Visualization observer readout
Local Sidereal Time
20:02:10
Azimuth
Unknown
Elevation
Unknown
Doppler factor
Unknown
Orbital elements
Apogee altitude
699.528 km
Perigee altitude
696.7 km
Semi-major axis
7,076.251 km
Eccentricity
0.0002
Inclination
47.0017°
RAAN
294.907°
Arg. of periapsis
204.7602°
True anomaly
155.32836°
Mean anomaly
155.3188°
Eccentric anomaly
155.32358°
Mean motion
3.64618 °/min
Orbital period
98.73 mins
BSTAR
0.00010705
Loading maneuver chart data...
Computing Atmospheric mass density...
Loading historical data...
Loading historical data...
Loading historical data...
Loading historical data...
Loading historical data...
Loading historical data...
Loading historical data...

Documentation

Showing up to 5 results
|